Location: Unspecified
(0.0000°N, 0.0000°E)
Time: 05:10:02
(UTC+00:00)

RS-6 - Pass Details

Date: 01 October 2022
Orbit: 1636 x 1664 km, 83.0° (Epoch: 27 November)

Event Time Altitude Azimuth Distance (km) Brightness Sun altitude
Rises 03:40:43 0° 168° (SSE) 4,897 ? -32.2°
Reaches altitude 10° 03:43:56 10° 162° (SSE) 3,905 ? -31.4°
Maximum altitude 03:52:49 44° 92° (E) 2,146 ? -29.2°
Drops below altitude 10° 04:01:36 10° 24° (NNE) 3,874 ? -27.0°
Sets 04:04:44 0° 18° (NNE) 4,856 ? -26.2°
